Slidell, LA

9:35 PM CDT on May 25, 2017 (GMT -0500)
Slidell

Weather History for KASD - June, 2013

Change the Weather History Date:

Tuesday, June 25, 2013

  Actual Average (KNEW) Record (KNEW)
Temperature  
Mean Temperature 82 °F -  
Max Temperature 91 °F 88 °F 97 °F (2012)
Min Temperature 72 °F 75 °F 62 °F (1966)
Cooling Degree Days 16    
Growing Degree Days 32 (Base 50)    
Moisture  
Dew Point 74 °F    
Average Humidity 77    
Maximum Humidity 97    
Minimum Humidity 52    
Precipitation  
Precipitation 0.00 in - - ()
Sea Level Pressure  
Sea Level Pressure 30.07 in    
Wind  
Wind Speed 3 mph (SSE)    
Max Wind Speed 10 mph    
Max Gust Speed -    
Visibility 10 miles    
Events Thunderstorm    
Averages and records for this station are not official NWS values.
T = Trace of Precipitation, MM = Missing Value Source: NWS Daily Summary

Daily Weather History Graph

Daily Weather History Graph

Search for Another Location

Airport or City:

Trip Planner

Search our weather history database for the weather conditions in past years. The results will help you decide how hot, cold, wet, or windy it might be!

Date:

Astronomy

Jun. 25, 2013 Rise Set
Actual Time 5:58 AM CDT 8:04 PM CDT
Civil Twilight 5:31 AM CDT 8:32 PM CDT
Nautical Twilight 4:57 AM CDT 9:06 PM CDT
Astronomical Twilight 4:21 AM CDT 9:42 PM CDT
Moon 10:04 PM CDT (6/25) 8:27 AM CDT (6/25)
Length of Visible Light 15h 01m
Length of Day
14h 06m
Waning Gibbous, 92% of the Moon is Illuminated
Jun 25
Waning Gibbous
Jun 29
Last Quarter
Jul 8
New
Jul 15
First Quarter
Jul 22
Full

Hourly Weather History & Observations

Time (CDT) Temp. Heat Index Dew Point Humidity Pressure Visibility Wind Dir Wind Speed Gust Speed Precip Events Conditions
12:53 AM 75.9 °F - 75.0 °F 97% 30.10 in 10.0 mi Calm Calm - N/A   Clear
1:53 AM 75.9 °F - 73.9 °F 94% 30.09 in 10.0 mi Calm Calm - N/A   Partly Cloudy
2:53 AM 75.0 °F - 73.9 °F 96% 30.08 in 10.0 mi Calm Calm - N/A   Clear
3:53 AM 73.9 °F - 73.0 °F 97% 30.07 in 10.0 mi Calm Calm - N/A   Clear
4:53 AM 73.9 °F - 73.0 °F 97% 30.07 in 10.0 mi Calm Calm - N/A   Clear
5:53 AM 72.0 °F - 71.1 °F 97% 30.09 in 10.0 mi Calm Calm - N/A   Clear
6:53 AM 73.9 °F - 73.0 °F 97% 30.09 in 10.0 mi Calm Calm - N/A   Clear
7:53 AM 80.1 °F 85.8 °F 77.0 °F 90% 30.11 in 10.0 mi Calm Calm - N/A   Clear
8:53 AM 84.0 °F 93.7 °F 77.0 °F 79% 30.11 in 10.0 mi Calm Calm - N/A   Clear
9:53 AM 87.1 °F 95.4 °F 73.9 °F 65% 30.11 in 10.0 mi SSE 4.6 mph - N/A   Mostly Cloudy
10:28 AM 86.0 °F 95.1 °F 75.2 °F 70% 30.10 in 10.0 mi South 8.1 mph - N/A   Mostly Cloudy
10:53 AM 88.0 °F 96.5 °F 73.9 °F 63% 30.10 in 10.0 mi SE 3.5 mph - N/A   Scattered Clouds
11:53 AM 88.0 °F 96.5 °F 73.9 °F 63% 30.09 in 10.0 mi South 6.9 mph - N/A   Scattered Clouds
12:53 PM 90.0 °F 96.4 °F 71.1 °F 54% 30.08 in 10.0 mi ESE 9.2 mph - N/A   Partly Cloudy
1:10 PM 91.4 °F 98.4 °F 71.6 °F 52% 30.08 in 10.0 mi ESE 5.8 mph - N/A Thunderstorm Partly Cloudy
1:37 PM 91.4 °F 98.4 °F 71.6 °F 52% 30.08 in 10.0 mi SSE 9.2 mph - N/A   Partly Cloudy
1:53 PM 89.1 °F 98.0 °F 73.9 °F 61% 30.07 in 10.0 mi South 10.4 mph - N/A   Partly Cloudy
2:53 PM 89.1 °F 98.0 °F 73.9 °F 61% 30.06 in 10.0 mi SE 8.1 mph - N/A   Clear
3:53 PM 89.1 °F 98.0 °F 73.9 °F 61% 30.05 in 10.0 mi SE 10.4 mph - N/A   Clear
4:53 PM 87.1 °F 97.3 °F 75.9 °F 69% 30.04 in 10.0 mi SSE 8.1 mph - N/A   Partly Cloudy
5:53 PM 86.0 °F 96.0 °F 75.9 °F 72% 30.03 in 10.0 mi South 8.1 mph - N/A   Clear
6:53 PM 84.9 °F 93.3 °F 75.0 °F 72% 30.01 in 10.0 mi South 5.8 mph - N/A   Clear
7:53 PM 84.0 °F 92.6 °F 75.9 °F 76% 30.01 in 10.0 mi SSE 5.8 mph - N/A   Clear
8:53 PM 82.0 °F 89.4 °F 75.9 °F 82% 30.02 in 10.0 mi SSE 3.5 mph - N/A   Clear
9:53 PM 82.0 °F 89.4 °F 75.9 °F 82% 30.04 in 10.0 mi SSE 4.6 mph - N/A   Clear
10:53 PM 80.1 °F 85.4 °F 75.9 °F 87% 30.04 in 10.0 mi SSE 3.5 mph - N/A   Clear
11:53 PM 81.0 °F 87.3 °F 75.9 °F 85% 30.03 in 10.0 mi South 4.6 mph - N/A   Clear